Theta_e
314 314 315 315 315 314 314 314 315 316 315 315 316 315 315 318 320 320 318 315 311 310 309 308 308 308 308 307 306 307 305 305 309 311 310 307 303 304 305 305 305 304 303 303 303 302 302 301 300 299 299 299 299 299 300 300 301 302 303 303 304 305 306 307 307 308 308 308 308 308 309 309 309 309
317 317 317 317 316 315 315 314 314 315 315 315 316 317 316 317 319 319 318 318 314 310 310 309 308 308 308 307 306 306 305 305 307 308 308 306 305 305 306 306 306 306 305 305 305 305 304 303 303 302 301 300 300 300 299 299 298 299 299 299 300 301 302 303 303 305 306 307 308 308 308 308 308 309
318 317 317 317 316 316 316 316 316 315 316 316 315 317 317 317 318 316 316 318 315 311 311 310 309 309 308 308 308 307 306 307 307 306 307 307 306 306 306 307 306 306 306 306 306 306 305 304 303 302 302 301 301 301 301 300 300 299 299 298 298 298 298 299 299 300 301 302 303 305 306 307 307 308
317 317 316 317 316 316 317 316 317 317 316 316 316 317 316 316 317 316 315 316 314 312 311 310 309 309 308 308 308 307 307 309 308 306 307 307 307 306 307 307 307 307 306 306 306 306 307 305 303 302 302 302 302 302 302 301 301 300 299 299 298 298 298 297 298 297 298 298 299 300 301 303 304 305
316 316 316 316 316 315 315 315 316 315 315 316 315 315 315 315 316 316 315 315 314 313 312 310 309 309 309 309 309 308 309 309 309 308 307 307 307 307 307 308 308 308 307 307 307 307 308 307 304 303 302 302 302 302 302 302 301 301 300 299 298 298 297 297 297 297 297 297 297 298 298 299 300 301
315 315 315 315 315 315 315 315 315 314 314 315 315 315 315 315 315 315 315 315 315 313 312 311 310 309 310 310 309 309 309 309 310 309 308 308 308 308 307 308 308 309 309 308 308 308 308 308 305 303 303 303 303 303 302 302 301 300 299 299 298 297 297 297 297 297 297 297 297 297 297 298 298 298
314 314 314 315 315 315 315 315 314 314 315 315 315 315 315 315 315 315 315 315 316 314 313 312 311 310 311 312 311 309 309 309 310 310 310 309 309 308 308 309 309 310 309 309 308 308 308 308 306 304 303 303 303 303 303 302 301 301 300 300 299 297 297 297 296 296 297 297 297 297 297 297 297 297
315 315 315 315 316 316 316 316 315 314 315 316 316 315 315 315 315 315 315 315 316 315 314 314 312 311 311 312 311 310 310 310 310 310 310 310 310 310 310 311 310 310 310 309 308 308 308 308 306 304 304 304 303 303 303 303 302 302 301 301 300 298 297 297 296 296 296 296 297 297 297 297 297 297
315 316 316 316 316 317 318 317 317 316 316 316 316 315 316 315 315 316 315 315 315 315 315 315 314 313 313 313 312 311 311 311 310 310 311 310 311 311 310 311 310 310 310 309 309 308 308 307 306 305 305 304 304 303 304 304 303 302 302 302 301 299 299 298 297 296 296 296 296 297 297 297 297 298
316 317 318 318 318 318 318 318 318 318 317 317 317 317 317 316 315 315 315 316 315 315 315 315 315 314 314 313 313 313 312 311 311 311 311 311 311 310 310 310 310 310 310 309 308 308 307 307 306 305 305 304 304 304 304 304 303 303 302 302 302 301 300 299 298 297 296 296 296 296 297 297 297 298
318 318 319 319 319 319 319 319 318 318 317 317 317 317 317 317 316 315 315 315 315 315 315 315 315 314 314 314 313 313 312 312 311 311 311 311 310 310 310 310 310 310 309 309 308 307 307 306 306 306 305 304 304 304 304 304 304 303 303 303 303 302 301 300 299 298 297 296 296 296 297 298 299 299
319 319 319 320 320 319 319 319 319 318 318 318 318 318 318 317 316 316 315 315 314 314 315 315 315 314 314 313 313 313 312 312 312 312 311 310 310 309 309 309 309 309 309 308 308 307 306 306 306 305 304 303 303 303 304 304 303 303 303 304 303 302 302 301 300 299 297 296 296 296 298 299 300 301
320 320 320 320 320 319 318 318 318 318 318 318 318 318 319 318 317 316 316 315 314 314 315 314 315 314 314 313 313 312 312 312 312 311 310 310 309 309 309 308 308 309 308 307 307 306 306 306 305 304 304 303 303 304 303 303 303 304 304 304 304 302 302 301 300 299 298 297 296 297 298 299 300 300
321 321 319 318 318 317 316 316 317 318 317 317 317 317 318 318 317 317 316 315 315 315 315 315 315 314 314 313 313 312 312 312 311 310 309 309 308 308 308 308 308 308 307 307 306 305 304 304 304 303 303 303 304 303 303 303 303 304 304 303 303 302 302 301 300 299 298 298 296 296 298 299 300 300
321 319 317 316 316 315 315 315 316 317 317 317 316 316 316 316 316 317 316 316 315 315 315 315 314 314 313 312 312 312 311 311 310 309 308 307 307 307 307 307 307 307 306 305 304 303 303 303 303 303 303 304 303 303 303 302 302 302 303 303 303 302 302 301 300 299 298 298 297 296 297 299 299 299
319 317 315 315 315 314 315 315 315 317 317 315 314 314 316 317 316 316 315 315 315 314 314 313 313 313 312 311 311 310 310 309 308 307 306 306 306 306 306 306 306 305 304 303 303 303 303 303 304 304 304 304 304 303 302 302 302 302 302 302 302 301 301 300 300 299 298 298 297 296 296 297 298 298
318 317 316 315 315 314 315 315 315 317 318 316 314 314 315 316 317 316 315 313 312 311 312 311 311 312 311 310 309 309 308 307 306 305 306 306 306 306 305 305 304 303 302 302 303 303 304 303 303 303 303 303 303 302 302 302 302 302 301 301 301 301 300 300 300 299 298 297 297 297 296 296 296 297
317 317 316 316 315 315 315 315 316 317 317 317 317 315 315 316 317 316 314 313 311 310 309 308 309 310 310 308 308 308 306 305 305 305 305 305 304 303 303 302 302 301 302 302 303 304 304 303 302 302 302 301 302 302 302 302 301 301 301 301 300 300 300 300 300 299 298 298 297 297 296 296 296 296
316 316 317 317 316 315 315 316 317 317 317 317 316 314 313 313 313 313 312 311 310 309 308 307 308 309 309 307 306 305 304 303 304 303 302 301 301 300 300 300 300 301 301 301 302 302 302 301 300 301 301 301 301 301 301 301 300 300 300 301 301 300 300 300 300 299 299 298 297 297 296 297 297 297
316 317 318 317 316 316 317 317 317 317 317 316 313 312 310 309 309 310 309 308 308 308 308 307 308 307 306 304 303 303 302 302 302 301 300 299 299 299 299 299 300 300 300 300 301 301 300 300 300 300 300 300 300 300 299 300 299 300 300 300 300 300 300 300 299 299 299 298 298 297 296 296 297 297
318 318 317 316 316 316 317 316 315 316 317 314 312 311 310 309 309 308 307 307 307 307 306 305 304 303 303 302 302 302 302 301 300 299 299 299 298 298 299 299 300 300 300 300 300 300 299 299 299 299 299 299 299 298 298 299 299 299 299 299 299 299 299 298 299 299 299 299 298 297 297 296 296 296
316 316 315 314 314 313 312 312 312 314 316 314 312 312 311 309 308 307 306 305 304 303 303 302 302 303 302 303 302 302 301 300 300 300 299 299 299 299 299 300 300 299 299 299 299 299 298 298 298 298 298 297 297 298 298 298 298 298 298 298 297 297 297 297 298 298 298 299 298 297 297 296 296 296
314 314 312 313 314 311 308 309 311 313 314 313 313 312 311 309 308 307 306 304 303 303 304 304 304 304 303 303 302 301 301 300 300 300 300 299 299 299 299 299 299 299 298 298 298 297 297 297 297 297 297 297 297 297 297 297 297 297 297 297 296 296 297 297 297 297 297 298 297 297 297 296 296 295
312 310 309 311 312 309 307 308 310 311 312 312 312 312 311 310 309 308 307 306 305 305 304 304 304 304 303 303 302 302 302 302 301 301 300 300 299 299 299 298 298 298 298 297 297 297 296 296 296 296 296 296 296 296 296 296 296 296 296 296 295 296 296 296 296 296 296 296 296 296 296 296 295 295
310 309 309 309 308 306 306 307 309 309 310 311 311 310 310 309 308 308 307 306 305 304 303 302 303 303 303 302 302 302 302 302 301 300 300 300 299 299 298 297 297 297 297 297 297 296 296 296 295 295 295 295 295 295 295 295 294 294 294 295 294 295 295 295 295 295 295 295 295 295 295 295 295 295
306 306 306 305 304 304 305 306 306 307 309 310 310 309 308 307 306 306 305 304 303 303 302 302 302 302 301 301 301 301 300 300 299 299 298 298 298 297 297 296 296 296 296 296 296 295 295 295 295 294 294 294 294 294 294 294 293 293 294 294 294 294 294 294 294 294 295 295 295 294 294 294 294 295
303 302 303 304 303 304 305 304 305 305 306 308 308 306 305 305 304 303 302 301 301 301 301 301 301 301 300 300 300 299 299 299 298 298 297 297 296 296 296 296 296 296 295 295 295 294 294 294 294 294 294 294 294 294 293 293 293 293 293 294 293 293 294 294 294 294 294 294 294 294 294 294 294 294
303 301 302 303 303 303 304 304 304 304 304 305 305 304 303 302 301 301 301 301 301 301 301 300 300 300 300 299 299 298 298 298 297 297 297 296 296 296 296 295 295 295 294 294 294 294 294 294 294 294 294 294 293 293 294 293 293 293 293 293 293 293 293 294 294 294 294 294 294 293 293 293 294 293
305 303 302 302 302 302 304 303 303 303 303 302 302 301 300 299 299 300 300 300 300 300 300 300 299 299 298 298 298 298 298 297 297 296 296 296 295 295 295 294 294 294 294 293 293 293 294 294 294 294 293 293 293 293 293 293 293 293 293 293 293 293 293 294 294 294 294 294 293 293 293 293 293 293
307 305 303 303 302 302 303 303 302 302 301 299 298 297 297 298 300 300 300 299 299 299 298 298 298 298 298 298 297 297 297 296 296 295 295 295 294 294 294 294 293 293 293 293 293 293 293 293 293 293 293 293 293 293 293 293 293 293 293 293 293 293 294 294 294 294 293 293 293 293 293 293 293 293
306 304 303 302 302 301 301 301 300 298 297 296 296 297 298 299 299 299 298 297 297 297 297 298 297 297 297 297 296 296 296 296 295 295 294 294 294 294 293 293 293 293 293 293 293 293 293 293 293 293 293 293 293 293 293 293 293 293 293 293 293 293 293 294 294 293 293 293 293 293 293 293 293 294
304 302 301 300 300 300 300 298 296 295 296 297 298 299 299 299 298 298 296 296 296 297 297 296 296 296 296 296 296 296 295 295 294 294 293 293 293 293 293 292 292 292 293 293 293 293 293 293 293 293 293 293 293 293 293 293 293 293 293 293 293 293 293 293 293 293 293 293 293 293 293 293 293 293
300 299 300 299 299 299 299 297 295 296 297 298 299 299 299 298 298 297 296 296 296 296 295 295 295 295 295 295 295 295 294 294 293 293 293 292 292 292 292 292 292 292 292 293 293 293 293 293 293 293 293 293 293 293 293 293 293 293 293 293 293 293 293 293 293 293 293 293 293 293 293 293 292 293
299 298 298 298 298 298 298 297 297 299 299 299 298 298 298 297 297 296 296 296 295 294 294 294 295 295 295 294 294 294 294 293 293 292 292 292 292 292 292 292 292 292 292 292 292 292 292 292 292 293 293 293 293 293 293 293 293 293 293 293 293 293 293 293 293 293 292 292 292 292 292 292 292 292
299 298 297 297 297 297 298 298 299 300 299 298 298 297 296 296 296 295 295 294 294 293 294 294 294 294 294 294 294 293 293 293 292 292 292 292 292 292 292 292 292 292 292 292 292 292 292 292 292 292 292 292 292 292 293 293 293 293 293 293 293 293 293 292 292 292 292 292 292 292 292 292 292 293
299 298 298 298 298 298 298 299 300 300 299 298 297 296 296 296 295 294 294 294 293 293 294 294 294 294 294 294 293 293 293 292 292 292 292 292 292 292 291 291 291 291 291 291 291 291 291 292 292 292 292 292 292 292 292 293 293 293 293 293 293 292 292 292 292 291 291 291 291 291 292 292 292 293
299 298 298 298 298 299 299 299 299 299 298 297 297 297 296 295 295 294 294 294 293 294 294 294 294 294 294 293 293 293 292 292 292 292 292 291 291 291 291 291 291 291 291 291 291 291 291 291 291 292 292 292 292 292 292 293 292 292 292 292 292 292 292 291 291 291 291 291 291 291 292 292 292 292
299 299 299 299 299 299 299 299 298 298 297 297 297 296 296 295 295 294 293 293 294 294 294 294 294 294 293 293 293 293 292 292 292 292 291 291 291 291 291 291 291 290 290 290 290 290 291 291 291 291 291 291 292 292 292 292 291 291 292 292 291 291 292 291 291 291 291 291 291 291 292 292 292 292
299 299 299 299 299 299 299 298 298 297 297 296 296 296 296 295 294 293 293 293 293 293 293 293 294 293 293 293 293 292 292 292 292 291 291 291 291 291 290 290 290 290 290 290 290 291 291 291 291 291 291 291 291 291 291 291 291 291 292 292 292 292 292 292 291 291 291 291 291 291 291 291 291 291
299 299 299 300 300 299 298 297 297 297 297 296 296 295 295 294 293 292 293 293 293 293 293 293 293 293 293 293 293 292 292 292 292 291 291 290 290 290 290 290 290 290 290 290 291 291 291 291 291 291 291 291 291 291 291 291 291 291 292 292 292 292 292 292 292 291 291 291 290 290 290 290 291 291
299 299 300 300 299 298 297 297 297 297 296 296 295 295 294 293 292 292 292 292 292 293 293 293 293 293 293 293 292 292 292 292 291 291 290 290 290 290 290 290 290 290 290 290 290 290 291 291 291 291 291 291 291 291 291 291 291 291 292 292 292 292 292 292 291 291 290 290 289 289 289 289 290 291
299 300 300 300 299 297 297 297 296 296 296 295 295 294 293 292 292 291 291 292 293 293 293 293 293 293 292 292 292 292 291 291 290 290 290 290 290 290 290 290 290 290 290 290 290 290 291 291 291 291 291 291 291 291 291 291 291 291 292 292 292 292 292 291 291 291 290 289 288 288 288 288 289 290
300 300 299 299 298 297 297 297 296 296 296 295 294 293 293 292 292 292 292 292 293 293 292 292 292 292 292 292 291 291 291 290 290 290 290 290 290 290 290 290 290 290 290 290 290 291 291 291 291 291 291 291 291 291 291 291 291 291 292 292 292 292 292 291 291 290 289 288 288 288 288 288 288 289
300 300 299 298 298 297 297 296 296 295 295 294 294 293 292 292 292 292 293 293 293 292 292 292 292 291 291 291 291 291 290 290 290 290 290 290 290 290 290 290 290 290 290 291 291 291 291 291 291 291 291 291 291 291 291 291 291 291 292 292 292 292 292 291 290 289 288 288 288 289 288 288 288 288
299 299 298 298 297 296 296 295 295 295 294 293 293 292 292 291 292 292 293 293 292 292 292 292 291 290 290 290 291 291 290 290 290 290 290 290 290 290 291 290 290 290 291 291 291 291 291 291 291 291 291 291 291 291 291 291 291 292 292 293 292 292 291 291 290 289 288 288 288 288 288 288 288 288
Wind_Speed
11 12 12 12 11 10 10 10 11 13 12 11 8 5 5 7 4 3 4 5 7 8 10 11 9 6 6 6 6 5 5 7 6 2 6 12 13 12 13 15 17 18 19 19 20 20 20 20 20 20 19 19 18 18 17 17 17 17 17 17 17 16 16 15 14 13 13 13 13 12 12 12 13 13
13 13 14 14 13 12 12 12 12 13 11 7 8 12 13 14 10 7 7 5 7 9 10 10 8 6 7 8 7 4 5 6 5 2 6 11 12 10 11 13 14 15 16 18 19 20 20 19 20 20 20 20 20 19 19 18 17 17 16 17 17 17 17 17 17 16 15 15 15 14 14 14 14 14
14 15 15 15 14 13 12 11 9 10 9 7 8 12 13 15 14 14 13 5 6 10 9 7 6 5 5 4 2 4 6 7 6 2 4 10 11 8 9 11 12 12 13 14 17 20 20 19 18 18 18 19 20 20 20 19 19 18 18 17 17 17 18 18 18 18 18 18 17 17 17 17 16 16
14 14 13 12 12 12 11 10 7 8 10 9 9 8 10 11 11 14 17 10 6 9 8 6 4 4 3 1 2 5 5 7 8 1 2 8 10 6 7 11 12 12 12 13 16 19 21 21 20 17 16 17 18 18 19 19 20 20 19 19 18 18 18 19 19 19 19 19 19 19 19 19 19 19
13 12 11 10 10 9 9 8 7 8 7 6 5 5 7 8 7 10 16 14 9 7 7 8 5 3 2 2 4 4 3 7 7 2 5 7 8 5 7 12 12 11 12 13 16 19 21 23 22 17 17 19 19 17 18 18 18 19 19 19 19 20 19 19 19 20 20 20 20 20 19 19 20 20
12 11 10 9 8 7 5 4 6 7 3 3 5 7 9 9 6 5 7 10 13 10 8 8 6 4 2 1 5 4 3 5 6 4 5 6 6 4 6 10 11 13 14 14 16 19 21 23 23 20 20 23 22 20 20 18 15 16 17 19 20 20 20 20 20 21 21 21 21 21 21 20 20 19
10 10 9 7 6 6 3 3 5 4 2 4 7 8 8 7 5 4 5 5 10 13 10 8 8 9 4 1 6 5 5 5 3 6 5 7 6 4 4 9 13 15 16 16 18 19 20 23 23 21 22 25 24 23 22 19 16 15 17 19 19 18 18 20 21 22 23 23 23 22 22 21 20 20
10 9 8 7 6 5 4 4 4 2 4 4 5 4 3 3 3 1 3 4 3 7 8 6 7 8 4 3 5 4 2 2 2 7 8 6 3 4 7 11 14 16 17 20 21 20 20 21 21 20 22 24 24 23 22 20 18 18 21 22 17 15 17 20 22 23 23 23 24 23 23 22 21 21
10 9 8 7 6 4 3 3 2 2 3 4 4 2 1 4 7 5 0 3 3 2 2 1 2 3 2 5 4 3 4 1 3 6 6 3 6 9 12 13 14 16 19 21 22 21 21 21 19 20 23 24 24 24 22 20 19 19 22 22 17 15 19 23 25 24 23 23 23 23 23 23 22 21
9 7 6 6 6 4 3 2 2 2 1 3 4 5 6 3 6 5 0 2 3 1 1 1 2 3 4 5 6 6 7 8 6 5 5 7 9 12 15 14 14 16 17 18 20 21 20 19 19 22 23 24 26 25 22 20 18 18 21 21 18 18 21 25 28 28 26 24 22 22 22 23 23 22
8 6 5 5 4 3 2 2 3 3 2 4 5 6 6 4 1 2 3 3 5 4 3 4 4 4 6 7 7 7 7 8 6 6 8 10 11 12 13 13 15 17 17 16 17 18 17 17 20 22 23 26 27 25 22 20 19 18 19 19 19 20 22 25 29 30 28 25 23 21 21 21 21 22
9 8 7 6 4 3 2 1 2 3 4 4 4 5 7 7 6 6 4 3 6 8 6 6 6 7 8 7 8 8 4 3 4 7 9 9 11 12 11 13 17 19 18 16 16 17 17 18 21 23 26 28 26 23 21 20 20 19 19 18 18 20 23 25 29 31 30 27 23 21 20 20 20 20
11 10 9 6 4 4 4 3 4 5 6 6 5 5 6 6 6 8 6 5 6 7 8 10 11 8 7 6 5 4 0 2 2 5 6 6 8 10 12 16 17 17 17 17 18 19 20 22 25 27 28 26 22 20 21 21 21 20 20 19 19 21 23 26 29 31 30 28 24 21 19 19 18 19
11 11 10 8 6 5 6 6 8 9 10 11 11 10 10 9 8 7 7 7 8 8 10 12 11 6 5 6 4 2 1 1 1 2 3 5 9 12 13 15 15 14 15 18 22 25 26 26 27 27 25 22 20 20 20 20 21 21 22 21 21 22 24 26 29 29 30 29 26 23 20 18 18 18
12 12 11 10 8 7 8 10 11 13 13 13 14 14 14 14 13 11 9 8 9 8 9 10 8 6 6 7 5 3 5 6 4 4 5 8 11 12 12 12 13 14 17 21 26 30 29 25 23 23 21 20 19 19 19 21 22 22 22 22 22 22 24 26 27 29 29 28 25 23 21 20 19 19
12 12 11 10 11 10 11 13 14 14 13 11 11 12 13 14 15 15 12 9 7 6 4 5 6 4 5 7 5 4 5 5 5 7 9 10 10 11 11 12 15 18 22 25 26 26 24 22 21 22 20 19 18 18 19 21 22 22 22 21 21 22 23 25 27 28 27 24 23 21 20 20 21 22
13 13 12 12 11 9 11 13 13 13 14 12 10 9 10 12 14 14 14 12 9 7 4 1 4 3 3 5 4 4 6 7 8 9 10 9 9 11 13 15 19 22 23 24 24 23 22 21 21 21 19 18 19 19 19 19 20 22 22 21 22 23 23 24 26 27 24 21 21 20 19 19 20 21
15 15 14 14 13 11 13 14 13 14 16 13 10 9 9 10 11 11 13 14 13 11 9 4 1 1 1 2 2 4 7 8 7 6 7 9 11 14 16 18 22 21 19 20 22 22 20 19 20 21 20 20 20 20 19 19 20 22 24 25 26 26 25 24 26 26 23 20 20 19 18 18 19 20
18 18 17 16 15 14 14 14 15 16 15 12 10 9 7 7 8 9 10 10 10 9 9 8 6 4 3 2 3 6 7 7 7 7 9 11 13 15 17 18 19 18 16 18 19 17 17 19 21 22 21 20 20 20 21 21 22 23 24 26 27 26 24 25 27 27 23 21 20 18 16 17 18 20
19 19 19 17 15 16 17 16 16 14 11 10 9 10 10 9 7 7 7 7 7 8 7 8 8 6 6 7 7 8 9 10 11 12 12 12 11 12 14 15 16 15 15 16 17 18 17 18 20 21 20 20 22 23 23 23 22 22 22 22 22 22 24 26 29 30 26 22 20 18 15 15 18 21
18 18 18 17 16 16 17 16 16 14 12 10 11 14 13 9 7 7 7 7 8 8 7 7 7 7 8 9 9 10 11 11 11 10 9 8 9 10 12 13 13 14 15 16 16 16 17 18 20 22 22 23 24 24 23 21 20 20 21 21 21 22 24 26 28 29 28 25 22 19 16 16 18 21
20 20 20 18 17 16 16 17 17 16 15 13 14 15 12 8 6 7 8 8 8 8 7 6 6 7 8 9 10 11 12 11 9 8 7 7 7 8 10 12 13 14 15 14 13 15 17 19 20 22 23 22 21 21 21 22 22 22 23 23 23 23 24 24 24 24 23 22 22 20 19 19 19 21
21 22 21 20 19 17 16 18 19 19 17 14 14 14 11 9 9 7 5 6 6 4 3 4 6 7 9 10 11 12 11 10 9 8 8 8 7 8 11 13 13 11 10 11 14 16 17 17 18 20 19 16 16 19 21 21 23 24 23 24 24 23 23 24 23 22 21 20 19 19 19 17 17 21
22 23 20 19 19 18 18 18 19 20 17 13 14 14 11 11 11 8 7 8 6 3 1 4 6 8 10 10 10 10 10 11 12 12 11 10 8 9 11 13 12 11 11 15 19 20 18 17 19 19 16 13 14 19 21 22 24 24 24 25 25 23 23 24 24 23 21 21 20 18 17 17 19 22
22 22 20 18 17 17 19 19 19 18 14 11 14 14 10 12 14 11 9 8 5 1 3 4 5 6 8 10 11 11 10 8 7 8 8 7 8 9 12 14 16 17 18 18 19 19 18 17 17 18 17 16 17 20 22 24 25 24 23 24 24 24 25 26 25 24 22 21 21 20 19 20 21 21
16 15 15 15 14 15 18 19 18 16 13 11 12 11 10 13 14 10 6 4 1 2 2 3 5 6 7 9 9 8 4 2 1 4 7 8 11 12 12 13 15 16 17 18 18 18 17 15 15 17 17 16 17 19 20 22 23 22 22 23 23 23 25 25 24 24 23 23 22 21 21 22 21 20
12 13 14 16 16 17 18 17 15 15 13 11 9 8 7 8 8 5 3 2 2 2 2 4 5 7 8 7 6 6 5 4 6 11 14 12 11 11 10 11 13 15 17 18 18 17 16 16 16 16 17 16 16 17 17 18 21 23 24 24 24 24 24 23 23 24 22 22 22 22 22 22 21 21
18 19 18 18 18 18 18 17 15 13 12 10 8 7 6 5 4 3 3 2 3 2 2 4 5 5 5 5 6 7 7 8 12 15 14 10 8 8 10 12 14 16 18 18 17 16 16 16 17 17 17 17 16 16 16 18 21 22 22 23 24 24 23 23 23 22 21 21 23 23 22 22 21 21
23 22 20 21 19 17 16 16 14 12 11 9 7 6 5 5 4 4 3 2 2 1 1 3 3 4 4 4 5 6 7 8 10 11 11 10 10 11 12 13 15 16 17 17 16 16 16 16 17 17 17 17 17 17 18 19 21 21 21 22 24 24 24 23 22 21 22 23 23 22 21 21 21 21
25 24 25 25 23 18 16 15 13 11 10 9 7 7 7 6 5 4 4 3 2 1 2 3 3 3 4 5 7 8 8 8 9 10 12 13 14 14 14 15 16 16 16 16 15 16 16 16 17 18 18 18 18 18 19 20 21 22 22 22 22 23 23 22 21 22 22 22 22 22 21 21 20 20
27 29 30 27 24 20 16 13 12 11 10 10 9 9 8 7 6 5 4 3 2 1 1 2 3 3 5 7 7 7 7 8 8 10 11 13 14 14 15 16 16 17 17 16 15 15 15 16 17 17 18 18 18 19 20 20 20 21 22 23 22 22 22 22 22 22 21 21 22 22 21 20 19 19
33 32 30 26 23 20 17 14 13 12 12 12 10 9 9 7 5 3 3 3 3 3 2 1 3 4 5 6 6 7 8 9 10 11 12 13 14 14 15 15 16 17 18 17 16 15 15 16 17 17 18 18 19 21 21 21 21 22 22 23 22 22 22 22 21 21 21 21 21 20 20 20 20 21
37 33 30 27 24 21 19 17 15 14 14 12 9 9 9 7 4 4 4 4 4 4 1 1 3 4 4 5 6 7 8 10 11 13 14 14 14 15 15 15 15 16 17 17 17 17 17 18 18 18 19 19 20 21 21 21 22 22 21 22 21 21 22 22 21 21 21 19 18 19 21 22 23 22
37 32 29 26 24 22 20 18 16 15 15 13 11 9 9 7 6 7 5 4 3 2 1 2 3 3 4 5 6 7 8 10 11 12 13 13 14 14 14 14 14 15 16 17 18 18 19 20 19 18 19 20 20 21 20 20 23 23 21 20 20 20 21 21 20 19 19 18 19 20 22 24 24 22
34 30 27 23 22 21 19 18 17 17 16 14 12 10 9 7 5 5 5 4 2 1 0 2 2 3 4 5 6 7 9 11 12 12 12 13 13 13 13 13 14 14 15 17 18 19 20 20 19 18 18 19 19 19 18 17 19 20 20 19 18 18 19 19 19 19 20 20 20 19 20 23 24 21
30 27 25 23 21 20 18 17 17 17 16 15 14 12 11 10 8 6 6 5 2 1 2 2 3 3 4 5 6 8 10 11 11 12 12 12 13 13 13 13 13 14 16 16 17 18 20 20 19 18 16 15 12 12 14 14 13 14 16 18 18 18 18 19 21 22 22 21 19 18 19 20 21 20
27 24 23 22 20 19 17 16 17 16 14 13 13 11 10 11 11 8 6 3 2 2 1 2 3 3 4 6 7 8 9 10 10 11 12 12 12 12 12 12 13 14 16 16 17 18 19 20 19 18 15 11 6 6 12 16 16 15 16 17 20 22 22 22 22 22 21 19 17 17 18 18 19 20
26 23 21 20 19 18 16 17 17 15 13 12 12 9 8 10 11 8 5 4 4 2 1 2 2 3 6 7 7 7 8 9 9 10 10 11 11 11 12 13 13 14 16 16 18 19 20 20 20 18 15 10 5 5 10 17 23 25 22 18 21 23 22 20 21 20 18 17 16 16 17 18 20 21
23 21 20 19 18 17 17 18 16 14 13 13 11 10 9 9 9 8 7 5 3 1 0 1 1 4 6 7 7 7 7 8 8 9 9 10 11 11 12 13 14 15 17 17 18 19 20 19 18 17 16 15 14 15 16 19 25 27 22 15 14 16 16 16 17 18 17 17 17 18 21 22 22 20
21 19 18 16 16 17 18 18 15 14 14 12 11 11 10 8 9 9 7 5 3 2 2 1 2 4 6 6 7 7 8 8 7 8 9 10 11 12 12 14 16 17 16 16 17 18 19 18 18 18 20 21 22 23 22 21 21 21 18 14 14 15 14 12 14 15 16 16 17 20 23 23 20 17
18 18 17 16 18 18 18 17 15 14 13 11 11 11 10 9 9 8 5 5 5 4 3 2 4 5 5 6 7 8 8 7 7 8 9 11 12 13 14 16 17 16 15 16 17 19 20 21 22 22 23 24 22 19 16 13 13 16 18 17 17 16 13 10 10 11 12 14 16 18 18 17 16 14
14 15 16 16 19 19 17 16 15 14 12 10 10 9 8 7 7 4 2 3 4 4 3 3 5 6 5 6 8 9 8 8 9 9 10 12 13 14 15 16 16 16 17 17 19 21 22 23 23 24 23 21 19 15 11 10 11 15 19 20 17 12 10 10 10 9 10 13 15 16 14 12 10 9
11 12 14 16 18 17 17 17 17 15 12 11 10 9 7 7 6 4 2 3 4 3 3 4 5 6 7 8 8 7 7 8 9 10 10 11 12 14 16 16 16 17 17 18 19 20 22 23 23 23 21 19 17 13 11 13 14 16 18 18 13 8 7 9 10 10 11 13 13 11 9 8 8 7
10 13 16 17 16 14 14 17 18 16 12 10 8 7 5 5 6 5 4 5 5 4 4 4 4 6 7 7 6 6 6 7 8 9 10 12 14 15 16 16 16 16 17 17 18 19 21 23 23 21 18 17 16 14 14 15 15 15 17 17 12 6 6 7 8 10 11 11 11 10 8 6 5 6
13 17 18 16 13 12 14 17 18 16 12 9 7 6 6 6 7 6 6 5 4 4 4 3 5 6 6 6 6 6 6 6 7 8 10 13 14 15 15 15 15 15 16 17 18 19 21 23 22 20 18 17 16 15 15 15 15 17 19 17 9 4 4 6 7 9 10 12 13 13 12 11 9 7
Wind_Direction
100 103 101 97 86 77 79 73 60 66 89 103 82 70 98 76 63 135 116 99 105 98 99 110 115 109 97 84 85 87 54 53 62 12 348 7 18 28 31 27 23 20 19 17 14 10 7 4 2 360 357 356 353 351 348 343 340 338 335 334 332 330 330 330 329 328 325 324 322 320 318 315 314 312
101 99 98 96 92 91 85 79 72 66 75 85 46 41 60 55 52 107 123 88 86 87 77 88 108 112 96 92 90 63 34 53 82 66 357 6 14 16 19 16 12 10 10 10 10 8 4 0 358 356 354 353 352 350 348 346 342 339 335 332 329 325 323 321 319 318 315 314 312 312 313 312 313 313
102 101 101 101 99 98 92 86 82 72 70 77 58 49 57 55 60 101 119 88 71 95 90 78 91 101 96 103 101 52 37 29 32 36 351 360 3 3 7 4 360 359 355 355 360 0 359 357 353 351 349 348 346 345 344 343 342 339 337 335 331 328 325 322 320 317 314 311 307 304 303 303 304 306
109 107 105 105 103 100 96 94 91 80 73 76 77 67 70 64 57 89 107 103 83 99 112 116 109 106 104 134 128 89 52 3 7 40 261 347 356 350 359 358 350 346 342 341 345 348 351 352 348 346 347 347 343 339 338 338 338 337 335 335 333 331 329 326 324 322 319 316 311 307 303 299 298 297
115 111 104 99 100 103 104 103 107 105 91 95 113 102 94 87 67 86 107 121 131 121 125 136 131 113 105 136 151 118 35 351 359 318 250 326 351 346 351 351 341 337 336 330 329 334 341 346 347 347 351 353 350 344 340 335 332 331 332 334 333 331 330 329 327 325 322 320 317 314 310 304 300 296
118 116 113 106 103 112 114 93 114 135 147 147 131 106 95 93 73 68 96 126 147 151 149 155 161 157 122 128 181 194 316 337 351 334 272 307 335 320 329 333 327 328 327 321 322 327 333 338 342 346 351 352 352 349 347 340 332 330 333 333 330 328 329 330 329 327 324 322 319 317 314 311 307 302
123 119 118 115 111 114 98 50 85 111 32 58 97 94 89 89 74 36 24 82 145 159 166 176 175 171 186 218 166 186 284 293 350 3 321 303 305 290 326 333 329 332 331 325 323 323 326 333 339 344 347 348 347 345 345 343 338 336 337 335 329 326 330 332 330 328 324 322 320 318 316 314 312 308
132 127 124 120 115 105 84 65 68 37 345 25 83 105 120 135 151 201 344 18 108 146 161 185 174 161 198 244 174 156 293 234 38 350 312 300 336 14 13 357 344 343 340 331 323 318 323 333 338 339 341 342 341 338 337 337 334 333 336 337 334 333 337 338 334 330 325 322 320 318 317 315 314 312
141 140 139 133 130 120 103 102 62 12 320 342 24 55 96 157 171 184 359 10 13 65 98 204 171 148 248 286 288 345 2 357 4 335 304 330 21 9 6 4 352 342 334 328 323 318 322 333 337 336 336 336 334 331 328 325 324 325 330 333 334 335 339 341 339 335 328 323 321 318 317 316 315 314
144 143 146 141 142 143 138 171 305 351 346 332 343 351 8 70 156 176 149 328 302 306 151 230 245 248 268 282 298 326 334 327 341 358 349 360 3 354 355 355 346 336 327 325 325 322 323 329 330 329 329 329 327 324 320 316 314 316 322 326 328 330 335 338 339 337 331 325 321 319 318 316 317 317
146 144 150 148 153 162 159 207 270 290 281 289 296 302 324 348 306 267 271 273 293 296 250 228 227 244 255 252 250 266 295 315 347 13 1 351 346 344 345 342 336 329 322 320 324 324 323 323 322 322 321 321 321 318 314 312 310 309 312 317 321 325 329 332 334 335 333 328 322 320 320 319 318 318
160 166 161 146 149 177 185 204 230 242 252 261 271 277 285 292 296 296 284 263 292 310 311 294 275 254 254 254 235 229 259 334 9 359 344 332 328 329 328 327 325 322 318 320 322 321 319 318 318 316 314 316 317 314 312 312 311 307 304 307 313 318 322 326 328 331 333 331 324 319 320 320 319 319
172 179 172 162 175 202 222 250 249 250 253 250 248 250 262 268 271 281 283 266 280 301 300 291 287 270 259 268 240 207 254 11 345 327 325 321 322 322 317 315 316 315 319 323 320 315 314 313 311 310 310 313 315 314 312 311 309 306 303 304 308 313 317 320 323 327 332 332 325 318 316 317 316 316
184 190 194 196 202 213 237 252 249 251 254 251 250 247 246 247 246 256 261 247 257 280 278 279 295 314 312 313 310 284 349 45 26 358 355 336 327 322 315 311 312 313 318 323 318 311 309 308 307 307 308 309 310 312 312 311 310 308 306 305 306 310 313 315 320 325 330 331 326 317 311 311 312 312
183 188 197 206 218 240 263 261 250 252 256 252 250 246 243 245 244 246 248 237 239 262 278 292 313 337 355 3 9 33 74 84 68 24 351 333 327 323 318 316 315 312 314 318 314 307 308 310 308 306 306 305 308 311 313 314 313 311 308 306 306 308 310 313 319 324 327 330 330 322 312 308 308 308
191 200 211 222 237 254 262 253 244 247 253 254 253 246 239 240 241 242 241 231 227 243 273 330 347 8 41 40 29 25 39 35 4 344 333 330 328 324 322 319 310 307 311 313 308 304 310 315 306 300 301 304 306 307 308 309 311 312 310 307 306 308 309 313 319 322 324 328 332 331 325 318 314 311
208 217 222 223 232 240 239 238 239 246 253 254 255 248 236 235 236 237 236 232 234 240 232 11 15 15 52 57 41 351 342 338 334 333 327 322 318 314 313 307 303 307 313 310 299 295 302 307 301 298 302 306 307 307 308 309 311 314 315 312 309 307 308 312 317 318 319 321 325 331 334 332 328 323
218 220 221 217 216 216 222 228 230 238 246 243 239 242 238 233 233 234 235 235 238 245 244 240 294 288 222 78 41 318 319 330 334 329 319 313 308 305 302 300 302 310 316 307 292 285 293 305 306 306 310 312 311 311 312 312 312 313 311 308 305 303 304 309 313 313 312 311 314 324 334 338 338 335
222 223 221 217 214 211 216 221 218 222 228 223 220 224 218 213 217 220 227 233 233 235 234 228 221 224 242 268 292 300 310 312 304 297 296 297 300 303 304 304 305 310 314 309 300 295 304 314 314 312 315 316 314 314 314 313 313 311 308 305 303 301 303 309 312 309 306 305 306 315 330 338 339 337
223 224 217 213 214 205 200 205 208 205 201 200 193 179 174 183 191 198 208 208 202 200 200 207 218 235 262 282 293 300 304 299 294 295 297 300 310 316 314 311 309 311 314 317 319 321 324 326 323 322 324 322 319 317 316 315 314 314 317 320 319 316 317 321 320 311 303 300 301 307 321 333 337 336
224 219 208 208 211 197 188 202 212 199 184 181 174 164 166 178 185 190 197 193 190 199 208 218 237 259 277 290 299 304 307 306 304 308 314 320 325 320 311 306 308 315 318 319 322 327 330 332 330 327 325 321 319 318 318 320 321 323 328 334 336 334 331 331 330 321 309 300 295 299 313 324 330 335
217 203 193 196 203 199 200 215 216 199 184 177 172 167 164 172 188 192 195 200 205 214 229 248 267 282 292 299 305 313 319 320 315 315 320 322 322 316 304 298 302 311 316 317 321 328 331 331 331 328 324 319 316 316 317 320 324 328 330 330 331 333 333 332 334 334 326 311 297 295 307 318 327 333
203 193 186 189 195 195 201 209 204 193 186 178 172 173 171 181 206 210 187 186 200 209 242 284 298 307 311 312 317 324 328 321 308 301 299 295 299 299 292 291 297 301 305 313 324 333 336 335 332 331 327 320 315 317 318 319 323 326 329 330 329 328 329 331 334 338 340 333 318 307 309 318 331 336
189 186 180 178 181 182 187 195 193 187 183 175 170 176 178 177 186 191 174 160 160 169 255 292 297 304 304 302 305 307 300 289 281 283 286 282 282 296 305 311 318 319 314 316 323 328 331 330 329 329 326 317 315 320 322 321 322 323 325 329 331 329 328 330 333 335 338 339 336 331 325 327 333 333
181 182 177 169 168 172 176 183 185 180 177 170 166 170 167 151 149 157 168 170 173 241 301 292 288 292 287 281 282 283 283 279 273 281 290 281 275 297 321 327 324 317 313 314 320 326 330 331 331 332 329 322 318 320 322 319 318 319 321 324 327 328 327 328 330 333 334 334 335 335 331 330 330 330
163 174 182 180 177 175 175 179 181 178 174 168 161 160 155 148 146 148 158 168 206 309 318 306 300 302 300 294 293 298 313 24 26 318 313 300 292 302 316 322 319 314 313 316 322 328 332 332 332 331 328 321 316 316 316 314 314 318 321 323 324 324 326 328 329 330 331 330 331 330 328 326 326 325
165 178 189 190 188 185 181 180 180 179 179 177 171 170 169 169 174 173 159 168 220 234 270 301 301 297 298 304 313 321 324 325 318 313 309 307 313 321 319 315 314 315 318 322 326 329 327 323 323 322 316 311 309 309 308 308 311 316 318 320 321 321 323 325 325 325 326 327 327 327 326 326 325 323
179 184 188 190 190 187 183 181 181 182 184 186 189 193 197 203 205 179 157 196 226 222 254 284 285 290 304 325 336 331 317 308 315 318 312 308 321 326 316 312 313 313 317 322 325 326 323 319 317 313 307 305 303 301 302 303 306 310 314 316 317 317 319 320 321 322 323 323 322 323 324 325 326 324
188 189 190 190 190 187 181 177 177 176 176 179 185 185 181 172 152 136 146 187 209 215 292 302 311 329 343 339 325 320 316 315 326 332 327 324 330 329 325 322 318 315 318 320 320 319 317 314 311 308 306 304 301 298 300 303 303 306 310 312 311 311 313 316 318 320 320 319 320 322 322 322 323 322
193 190 187 186 185 184 180 175 171 167 164 163 161 156 150 140 138 155 170 162 143 96 358 356 2 355 339 322 313 314 318 323 330 333 333 334 336 336 333 328 321 317 318 318 316 316 313 311 310 308 305 303 299 297 298 299 299 301 303 303 304 306 309 312 315 315 317 318 319 321 322 321 321 319
188 181 177 178 176 175 173 168 162 159 154 149 146 143 141 140 152 172 176 153 131 124 45 15 360 335 321 317 315 316 320 326 333 339 344 345 343 338 335 330 324 320 318 315 313 313 312 311 311 309 306 301 298 296 295 293 292 294 296 298 299 301 305 310 314 315 317 318 318 320 322 323 321 319
178 171 167 167 167 167 165 158 153 152 148 143 141 142 149 162 179 171 125 89 108 138 138 9 326 315 311 313 319 327 333 342 348 351 350 347 341 336 332 327 321 317 315 314 316 317 316 315 313 311 309 306 302 300 296 291 287 286 290 293 296 298 302 309 313 315 317 317 316 317 320 319 318 319
166 161 161 162 161 161 161 156 152 152 149 147 150 156 161 169 172 147 117 97 117 140 144 327 309 300 304 315 326 333 338 342 345 346 342 339 334 330 326 321 316 313 314 317 321 323 319 315 311 309 307 305 302 301 297 291 287 286 286 288 292 296 300 305 309 312 315 317 317 316 316 316 315 316
158 155 156 159 158 159 161 161 161 161 157 157 163 166 162 154 143 136 130 120 116 109 359 312 285 286 310 324 328 336 343 345 343 339 333 329 325 320 318 315 312 313 318 320 322 321 318 315 312 309 307 305 303 301 297 289 286 287 288 289 292 296 300 304 308 311 311 313 314 314 313 313 316 319
151 150 152 156 160 161 163 167 170 167 165 164 165 161 156 156 151 142 147 152 138 97 295 272 284 302 318 327 335 345 348 343 337 332 328 326 324 321 319 317 316 320 323 322 320 319 319 319 318 315 314 312 307 305 303 295 287 288 291 292 294 298 301 305 309 309 307 307 309 310 308 309 317 326
145 148 153 157 163 164 168 175 174 168 167 170 167 161 159 160 159 157 164 179 200 198 199 271 311 313 321 337 349 351 346 339 336 335 333 332 330 326 322 321 321 324 325 320 318 318 318 318 319 318 315 313 308 304 308 306 297 295 301 302 301 301 303 306 309 309 310 311 310 307 301 302 313 326
142 149 155 157 163 170 175 176 167 161 162 164 160 157 156 156 155 155 158 165 166 166 194 306 313 313 336 348 348 344 340 336 334 333 330 328 327 325 323 323 323 323 321 316 314 316 315 314 315 314 310 309 306 294 301 306 305 303 305 303 300 301 302 303 305 309 313 315 313 308 305 308 315 322
144 152 155 158 168 176 172 160 153 153 156 156 152 149 146 146 147 144 135 131 139 157 242 292 306 334 345 342 337 333 330 328 327 329 329 329 330 329 328 328 324 319 317 313 312 313 312 309 308 307 305 305 300 293 306 311 308 308 311 308 300 301 304 302 299 302 308 312 311 308 308 309 311 314
146 152 156 163 170 167 155 148 148 151 152 152 153 154 151 144 139 135 130 127 120 67 311 237 299 344 346 340 338 338 334 331 332 335 336 337 338 337 335 332 326 319 315 313 312 312 310 307 305 307 308 306 303 302 305 304 302 309 323 332 319 314 318 310 298 296 302 307 309 308 307 307 308 310
146 153 159 162 158 148 143 144 148 150 150 152 156 156 154 146 135 132 133 126 95 41 21 14 355 350 342 333 330 330 329 331 339 346 350 351 347 342 336 328 321 317 313 310 310 311 309 307 306 308 309 310 309 307 304 298 298 309 327 337 329 325 326 315 299 296 301 309 314 316 316 316 317 319
147 154 159 156 146 142 142 144 148 148 149 153 153 146 143 142 139 138 137 120 90 63 47 22 357 349 342 336 337 338 340 350 5 7 1 350 338 330 325 320 316 314 309 307 307 308 308 310 312 313 314 315 315 311 302 293 297 308 318 322 321 321 322 322 315 309 312 320 326 326 325 322 319 321
139 153 157 149 141 141 143 145 149 149 145 146 147 141 139 145 149 154 168 141 102 72 51 21 1 357 354 350 350 352 360 12 15 4 349 336 328 326 324 320 316 311 308 306 306 309 314 319 322 322 321 320 316 306 292 286 293 301 309 316 318 317 321 332 337 333 333 336 335 331 327 325 324 329
147 155 150 139 138 145 150 150 150 147 139 135 139 142 148 158 158 150 126 120 114 89 50 24 5 352 344 343 346 354 2 5 359 349 340 334 331 328 323 318 314 313 312 312 313 317 322 326 327 326 324 321 315 303 291 292 294 294 300 308 313 316 327 338 346 349 346 345 344 337 323 310 305 308
178 159 143 138 141 149 153 151 147 142 135 131 136 146 149 144 134 118 98 100 101 77 47 24 348 333 335 344 350 352 355 355 354 352 346 339 335 330 323 318 318 321 322 322 323 326 328 329 329 329 325 319 315 307 297 296 295 294 299 303 305 312 334 343 351 357 359 4 13 16 11 356 336 324
174 147 135 136 137 131 130 134 134 130 125 126 135 140 131 117 109 99 95 100 90 61 42 4 330 334 350 354 344 341 354 9 11 360 344 337 336 335 330 328 329 329 329 330 329 328 328 329 331 331 327 321 319 314 308 305 302 299 299 299 296 306 348 355 359 7 17 28 33 34 36 38 36 32